Weather History for KPIH - April, 2012

Change the Weather History Date:

Sunday, April 22, 2012

  Actual Average Record
Temperature  
Mean Temperature 65 °F 47 °F  
Max Temperature 85 °F 60 °F 85 °F (2012)
Min Temperature 45 °F 34 °F 21 °F (2008)
Degree Days  
Heating Degree Days 0 18  
Month to date heating degree days 393 448  
Since 1 July heating degree days 6068 6560  
Cooling Degree Days 0 0  
Month to date cooling degree days 0 0  
Year to date cooling degree days 0 0  
Growing Degree Days 14 (Base 50)    
Moisture  
Dew Point 36 °F    
Average Humidity 44    
Maximum Humidity 76    
Minimum Humidity 12    
Precipitation  
Precipitation T in 0.04 in 0.46 in (2010)
Month to date precipitation 0.56 0.80  
Year to date precipitation 3.98 4.02  
Snow  
Snow 0.00 in - - ()
Month to date snowfall 0.8  
Since 1 July snowfall 15.8  
Snow Depth 0.00 in    
Sea Level Pressure  
Sea Level Pressure 30.00 in    
Wind  
Wind Speed 6 mph (NNE)    
Max Wind Speed 14 mph    
Max Gust Speed 16 mph    
Visibility 10 miles    
Events Rain    
T = Trace of Precipitation, MM = Missing Value Source: NWS Daily Summary

Daily Weather History Graph

Daily Weather History Graph

Search for Another Location

Airport or City:

Trip Planner

Search our weather history database for the weather conditions in past years. The results will help you decide how hot, cold, wet, or windy it might be!

Date:

Astronomy

Apr. 22, 2012 Rise Set
Actual Time 6:36 AM MDT 8:21 PM MDT
Civil Twilight 6:06 AM MDT 8:51 PM MDT
Nautical Twilight 5:29 AM MDT 9:28 PM MDT
Astronomical Twilight 4:50 AM MDT 10:08 PM MDT
Moon 7:07 AM MDT (4/22) 10:04 PM MDT (4/22)
Length of Visible Light 14h 45m
Length of Day
13h 44m
New Moon, 2% of the Moon is Illuminated
Apr 22
New Moon
Apr 29
First Quarter
May 5
Full
May 12
Last Quarter
May 20
New

Hourly Weather History & Observations

Time (MDT) Temp. Windchill Dew Point Humidity Pressure Visibility Wind Dir Wind Speed Gust Speed Precip Events Conditions
12:53 AM 51.1 °F - 37.0 °F 59% 30.04 in 10.0 mi NNE 4.6 mph - N/A   Clear
1:53 AM 51.1 °F - 37.0 °F 59% 30.06 in 10.0 mi WSW 6.9 mph - N/A   Clear
2:53 AM 61.0 °F - 36.0 °F 39% 30.02 in 10.0 mi SSE 6.9 mph - N/A   Scattered Clouds
3:53 AM 64.0 °F - 37.0 °F 37% 29.99 in 10.0 mi South 6.9 mph - 0.00 in Rain Light Rain
4:53 AM 53.1 °F - 37.9 °F 57% 30.02 in 10.0 mi NNE 11.5 mph - N/A   Mostly Cloudy
5:53 AM 51.1 °F - 39.0 °F 63% 30.04 in 10.0 mi WNW 5.8 mph - N/A   Scattered Clouds
6:53 AM 45.0 °F 41.8 °F 37.9 °F 76% 30.08 in 10.0 mi East 5.8 mph - N/A   Scattered Clouds
7:53 AM 52.0 °F - 39.0 °F 61% 30.09 in 10.0 mi NNE 4.6 mph - N/A   Clear
8:53 AM 55.0 °F - 39.0 °F 55% 30.12 in 10.0 mi Calm Calm - N/A   Clear
9:53 AM 62.1 °F - 42.1 °F 48% 30.09 in 10.0 mi Variable 3.5 mph - N/A   Clear
10:53 AM 70.0 °F - 41.0 °F 35% 30.06 in 10.0 mi NNE 8.1 mph - N/A   Clear
11:53 AM 75.0 °F - 43.0 °F 32% 30.04 in 10.0 mi NNE 5.8 mph - N/A   Clear
12:53 PM 78.1 °F - 42.1 °F 28% 30.02 in 10.0 mi Variable 5.8 mph - N/A   Clear
1:53 PM 80.1 °F - 37.9 °F 22% 30.01 in 10.0 mi South 4.6 mph - N/A   Clear
2:53 PM 84.0 °F - 37.0 °F 19% 29.96 in 10.0 mi WNW 8.1 mph - N/A   Partly Cloudy
3:53 PM 84.0 °F - 33.1 °F 16% 29.93 in 10.0 mi Variable 5.8 mph - N/A   Partly Cloudy
4:53 PM 84.0 °F - 26.1 °F 12% 29.94 in 10.0 mi Variable 6.9 mph - N/A   Scattered Clouds
5:53 PM 84.0 °F - 30.0 °F 14% 29.93 in 10.0 mi WNW 6.9 mph - N/A   Partly Cloudy
6:53 PM 82.9 °F - 28.9 °F 14% 29.94 in 10.0 mi WNW 5.8 mph - N/A   Partly Cloudy
7:53 PM 71.1 °F - 36.0 °F 28% 29.95 in 10.0 mi SSE 8.1 mph - N/A   Partly Cloudy
8:53 PM 66.9 °F - 35.1 °F 31% 29.97 in 10.0 mi South 6.9 mph - N/A   Partly Cloudy
9:53 PM 64.0 °F - 33.1 °F 31% 29.97 in 10.0 mi Calm Calm - N/A   Clear
10:53 PM 66.0 °F - 33.1 °F 29% 29.95 in 10.0 mi East 5.8 mph - N/A   Clear
11:53 PM 64.9 °F - 32.0 °F 29% 29.94 in 10.0 mi Calm Calm - N/A   Clear